Tracking 35048 objects as of 19-Aug-2026
HD Live streaming from Space Station
objects crossing your sky now

GEESAT 1-04

Track GEESAT 1-04 now!
10-day predictions


NORAD ID: 52788
Int'l Code: 2022-058D
Launch date: June 2, 2022
Source: People's Republic of China (PRC)
Launch site: Xichang Space Center, China (XSC)
Your satellite tracking list
Your tracking list is empty




NASA's NSSDC Master Catalog

Two Line Element Set (TLE):
1 52788U 22058D   26231.17284745  .00001059  00000-0  16161-3 0  9992
2 52788  50.0040 272.1854 0009412  27.2662 332.8768 14.81564305229266
Source of the keplerian elements: AFSPC